Location: Fort Wayne
(41.1310°N, 85.1290°W)
Time: 00:40:55
(UTC-05:00)

Vanguard 3 - Visible Passes

Search period start: 09 February 2016 00:00
Search period end: 19 February 2016 00:00
Orbit: 508 x 3268 km, 33.3° (Epoch: 08 February)

Date Brightness Start Highest point End Pass type
(mag) Time Alt. Az. Time Alt. Az. Time Alt. Az.
10 Feb 10.7 21:28:10 10° S 21:28:41 11° S 21:28:41 11° S visible
11 Feb 10.8 22:23:46 10° SSW 22:24:27 11° SSW 22:24:27 11° SSW visible
12 Feb 10.4 21:10:02 10° SSW 21:15:35 17° S 21:15:35 17° S visible
13 Feb 10.4 19:58:00 10° S 20:04:02 13° SSE 20:06:43 12° SE visible
13 Feb 10.4 22:06:58 10° SW 22:11:22 19° SSW 22:11:22 19° SSW visible
14 Feb 10.1 20:52:33 10° SSW 21:02:31 24° SSE 21:02:31 24° SSE visible
14 Feb 10.8 23:05:42 10° SW 23:07:10 13° SW 23:07:10 13° SW visible
15 Feb 10.3 19:39:17 10° S 19:48:54 18° SSE 19:53:39 15° SE visible
15 Feb 10.0 21:50:17 10° SW 21:58:18 29° SSW 21:58:18 29° SSW visible
16 Feb 10.7 18:29:07 10° SSE 18:34:13 12° SE 18:38:48 10° SE visible
16 Feb 9.8 20:35:20 10° SSW 20:48:17 30° SSE 20:49:26 30° SSE visible
16 Feb 10.4 22:49:29 10° WSW 22:54:05 22° SW 22:54:05 22° SW visible
17 Feb 10.2 19:21:23 10° SSW 19:33:38 23° SSE 19:40:33 15° ESE visible
17 Feb 9.7 21:33:40 10° SW 21:45:12 39° S 21:45:12 39° S visible
17 Feb 10.9 23:49:25 10° WSW 23:49:51 11° WSW 23:49:51 11° WSW visible
18 Feb 9.6 20:18:19 10° SW 20:33:04 36° SSE 20:36:17 32° SE visible
18 Feb 10.0 22:33:14 10° WSW 22:40:56 32° SW 22:40:56 32° SW visible
